This demonstration page uses our WeatherBlox Daily Observations layout. Learn more.

Left ArrowRight Arrow

44.8408, -93.29828

Hourly Observations for June 18, 2017

Temp ( °F °C ) Dew Point ( °F °C ) Humidity (%) Winds ( mph kmh ) Pressure ( in mb ) Visibility ( mi km ) Precip ( " mm )
12:53 am 00:53 Mostly Cloudy 63 17.2 60 15.6 90 90 W 3 6 29.59 1002 10 16 0.01 0.25
1:19 am 01:19 Cloudy 63 17.2 60 15.6 90 90 SW 5 7 29.59 1002 10 16 0.00 0.00
1:33 am 01:33 Cloudy 64 17.8 60 15.6 87 87 W 9 15 29.59 1002 10 16 0.00 0.00
1:44 am 01:44 Cloudy 63 17.2 59 15 87 87 WNW 10 17 29.59 1002 10 16 0.00 0.00
1:47 am 01:47 Cloudy with Nearby Thunderstorms 63 17 59 15 88 88 WNW 9 15 29.59 1002 10 16 0.00 0.00
1:53 am 01:53 Cloudy with Nearby Thunderstorms 63 17.2 59 15 87 87 W 9 15 29.58 1002 10 16 0.00 0.00
2:04 am 02:04 Cloudy with Nearby Thunderstorms 62 16.7 59 15 90 90 WNW 8 13 29.59 1002 9 14 0.00 0.03
2:13 am 02:13 Cloudy with Light Rain 62 16.7 59 15 90 90 NW 7 11 29.59 1002 10 16 0.00 0.03
2:53 am 02:53 Partly Cloudy 62 16.7 58 14.4 86 86 WNW 7 11 29.58 1002 10 16 0.01 0.25
3:15 am 03:15 Mostly Cloudy 62 16.7 58 14.4 86 86 W 8 13 29.59 1002 10 16 0.00 0.00
3:53 am 03:53 Cloudy 61 16.1 57 13.9 87 87 W 8 13 29.60 1002 10 16 0.00 0.00
4:15 am 04:15 Cloudy 61 16.1 57 13.9 87 87 WNW 9 15 29.62 1003 10 16 0.00 0.00
4:53 am 04:53 Mostly Cloudy 60 15.6 57 13.9 90 90 NW 9 15 29.61 1003 10 16 0.00 0.00
5:53 am 05:53 Mostly Cloudy 60 15.6 57 13.9 90 90 WNW 9 15 29.64 1004 10 16 0.00 0.00
6:53 am 06:53 Mostly Cloudy 62 16.7 57 13.9 84 84 NW 10 17 29.66 1004 10 16 0.00 0.00
7:05 am 07:05 Mostly Cloudy 62 16.7 57 13.9 84 84 WNW 9 15 29.68 1005 10 16 0.00 0.00
7:53 am 07:53 Mostly Cloudy 63 17.2 57 13.9 81 81 WNW 13 20 29.67 1005 10 16 0.00 0.00
8:27 am 08:27 Mostly Cloudy 64 17.8 55 12.8 73 73 NW 15 24 29.68 1005 10 16 0.00 0.00
8:53 am 08:53 Mostly Cloudy 65 18.3 55 12.8 70 70 NW 13 20 29.68 1005 10 16 0.00 0.00
9:53 am 09:53 Mostly Cloudy 65 18.3 54 12.2 68 68 NW 13 20 29.70 1006 10 16 0.00 0.00
10:53 am 10:53 Mostly Cloudy 67 19.4 54 12.2 63 63 WNW 17 28 29.70 1006 10 16 0.00 0.00
11:53 am 11:53 Cloudy 69 20.6 54 12.2 59 59 WNW 13 20 29.71 1006 10 16 0.00 0.00
12:53 pm 12:53 Mostly Cloudy 71 21.7 52 11.1 51 51 WNW 17 28 29.70 1006 10 16 0.00 0.00
1:53 pm 13:53 Mostly Cloudy 72 22.2 53 11.7 52 52 WNW 18 30 29.70 1006 10 16 0.00 0.00
2:53 pm 14:53 Cloudy 69 20.6 52 11.1 55 55 NW 17 28 29.71 1006 10 16 0.00 0.00
3:53 pm 15:53 Mostly Cloudy 71 21.7 53 11.7 53 53 NNW 17 28 29.71 1006 10 16 0.00 0.00
4:53 pm 16:53 Mostly Cloudy 73 22.8 52 11.1 48 48 NW 16 26 29.70 1006 10 16 0.00 0.00
5:53 pm 17:53 Partly Cloudy 72 22.2 51 10.6 48 48 NW 17 28 29.71 1006 10 16 0.00 0.00
6:53 pm 18:53 Partly Cloudy 72 22.2 50 10 46 46 WNW 16 26 29.72 1007 10 16 0.00 0.00
7:53 pm 19:53 Partly Cloudy 71 21.7 50 10 47 47 NNW 12 19 29.74 1007 10 16 0.00 0.00
8:53 pm 20:53 Partly Cloudy 69 20.6 51 10.6 53 53 NW 9 15 29.75 1008 10 16 0.00 0.00
9:53 pm 21:53 Partly Cloudy 66 18.9 51 10.6 59 59 WNW 6 9 29.77 1008 10 16 0.00 0.00

Powered by AerisWeather